Content
SEND FEEDBACK

Daily
Averages
Monthly
Summary
Italy

PERUGIA, ITALY


Home > Europe > Italy
Elevation: 1677 feet     Latitude: 43 07N     Longitude: 012 23E

WEATHER
 
SELECT A DAY
Number of Records: 108,992;   Date Range: 7/1/96 - 10/19/14
 
SHARE

PRINT THIS DATA

[ ← Previous Day ]
WEATHER ALMANAC - JANUARY 24, 2013
[ Next Day → ]
[ °C ]   °F
Weather ElementAverageHighLow
Temperature38.5 °F46.4 °F (1:50 pm)33.8 °F (7:30 am)
Dewpoint36.7 °F41 °F (12:50 pm)33.8 °F (7:15 am)
Humidity93.5 %100 % (6:50 am)76 % (1:50 pm)
Barometer29.47 in29.50 in (8:50 pm)29.42 in (1:50 pm)
Wind Speed4.4 mph17.3 mph (3:50 pm)
Weather ElementAverage
Visibility4.3 mi
Wind DirectionSE (131.9 °)

Weather ElementTotal
Precipitation---
Heating Degree Days24.9 (Base 65)
Averaged from 21 records on January 24, 2013
WEATHER CONDITIONS BREAKOUT
WIND DIRECTION BREAKOUT
WEATHER BY HOUR - JANUARY 24, 2013
[ °C ]   °F
Local TimeTemperatureDewpointHumidityBarometerVisibilityWind DirectionWind SpeedGust SpeedPrecipitationEventsConditions
6:50 AM35.6 °F35.6 °F100 %29.47 in6.2 miNorth (360°)8.1 mphPartly Cloudy
7:15 AM35.6 °F33.8 °F93 %29.47 in1.9 miEast (80°)4.6 mphMist
7:30 AM33.8 °F33.8 °F100 %29.47 in0.5 miVariable2.3 mphFogFog
7:50 AM33.8 °F33.8 °F100 %29.47 in0.3 miVariable2.3 mphFogFog
8:50 AM33.8 °F33.8 °F100 %29.47 in1.9 miVariable1.2 mphMostly Cloudy
9:15 AM35.6 °F35.6 °F100 %29.47 in4.3 miVariable2.3 mphMostly Cloudy
9:50 AM35.6 °F35.6 °F100 %29.47 in0.8 miVariable2.3 mphMostly Cloudy
10:50 AM37.4 °F37.4 °F100 %29.47 in0.8 miVariable2.3 mphMostly Cloudy
11:50 AM39.2 °F39.2 °F100 %29.47 in1.2 miVariable1.2 mphMostly Cloudy
12:50 PM42.8 °F41.0 °F93 %29.44 in5.0 miVariable2.3 mphMostly Cloudy
1:50 PM46.4 °F39.2 °F76 %29.42 in6.2 miNW (310°)4.6 mphMostly Cloudy
2:50 PM44.6 °F37.4 °F76 %29.44 in5.6 miNNW (340°)12.7 mphRainRain
3:50 PM41.0 °F37.4 °F87 %29.44 in5.6 miNorth (350°)17.3 mphRainRain
4:50 PM41.0 °F37.4 °F87 %29.44 in5.6 miNNW (330°)8.1 mphRainRain
5:50 PM39.2 °F37.4 °F93 %29.47 in6.2 miVariable1.2 mphRainLight Rain
6:50 PM39.2 °F37.4 °F93 %29.47 in6.2 miNNE (20°)3.5 mphScattered Clouds
7:50 PM37.4 °F35.6 °F93 %29.47 in6.2 miNorth (350°)4.6 mphScattered Clouds
8:50 PM39.2 °F37.4 °F93 %29.50 in6.2 miWest (270°)4.6 mphMostly Cloudy
9:50 PM39.2 °F37.4 °F93 %29.50 in6.2 miVariable2.3 mphRainLight Rain
10:50 PM39.2 °F37.4 °F93 %29.50 in6.2 miNorth (360°)3.5 mphRainLight Rain
11:50 PM39.2 °F37.4 °F93 %29.50 in6.2 miVariable1.2 mphRainLight Rain
Hourly data recorded from LIRZ, located miles away from Perugia, Italy







STORIES FROM OUR PARTNERS